Weather in Bedrino

Russia / Kostroma Oblast     58°18′20″N   42°53′51″E
temp.,
°C
wind,
m/s
gust,
m/s
humid.,
%
clouds,
%
prec.,
mm/h
press.,
hPa
HPBL,
m
16 june, wed
wed1600:00+15wsw11945 0.8 100911
03:00+14wsw009517 1.4 100911
06:00+17wnw12914 0.4 1008115
09:00+20nw35865 2.5 1008428
12:00+22nw5653100 1.7 10091218
15:00+23nw57400 1.7 10101975
18:00+20nw58410 0.0 10111538
21:00+13nw310621 0.0 1014202
17 june, thu
thu1700:00+12wnw386374 0.0 1016155
03:00+10wnw312601 0.0 1017299
06:00+12wnw410590 0.0 1018343
09:00+17nw58440 0.0 10191154
12:00+20nw69345 0.0 10202283
15:00+21nnw6103352 0.0 10202826
18:00+19n48455 0.0 10221578
21:00+13wnw22685 0.0 102317
18 june, fri
fri1800:00+11nnw22750 0.0 102526
03:00+9n117713 0.0 102610
06:00+13se016789 0.0 102792
09:00+19wsw124152 0.0 1027809
12:00+23w2434100 0.0 10261439
15:00+24w353892 0.0 10241679
18:00+23wsw3752100 0.0 1023668
21:00+17sw310810 0.0 1023199
19 june, sat
sat1900:00+16wsw398972 0.0 1024173
03:00+15wsw3119326 0.0 1023211
06:00+19w39785 0.0 1023259
09:00+24w47535 0.0 1023827
12:00+27w57401 0.0 10221890
15:00+28w57380 0.0 10212019
18:00+26wnw48482 0.0 10211069
21:00+19wsw36760 0.0 102297
20 june, sun
sun2000:00+17w38890 0.0 1022136
03:00+17w310914 0.0 1023186
06:00+20w38780 0.0 1023242
09:00+26wsw36555 0.0 1023744
12:00+29wsw454316 0.0 10221889
15:00+29w454161 0.0 10212124
18:00+27wsw46547 0.0 10201134
21:00+20wsw39805 0.0 1021201